SCP
-0 -0 -0 -0 -0 0 -0 -0 -0 0 0 -0 0 0 0 0 0 0 0 0 0 0 0 0 0 -0 -0 -0 0 0 0 0 0 -0 -0 0 -0 -0 -0 0 0 0 0
0 -0 -0 -0 -0 -0 0 -0 0 0 0 -0 0 0 0 0 0 0 0 0 0 -0 0 0 0 0 0 -0 0 0 0 0 -0 0 -0 -0 -0 -0 0 0 0 -0 0
-0 -0 -0 -0 -0 -0 -0 0 0 -0 0 0 0 0 0 0 0 0 0 0 0 0 0 0 0 0 -0 -0 -0 -0 0 0 -0 -0 0 0 0 0 0 0 0 -0 0
0 0 -0 -0 -0 -0 -0 -0 0 -0 0 0 0 0 0 0 0 0 0 0 0 0 0 0 0 0 0 0 -0 0 0 -0 0 -0 0 0 0 0 0 0 0 0 0
0 -0 -0 -0 -0 -0 -0 -0 -0 0 -0 -0 0 0 0 0 0 0 0 0 0 0 0 0 0 -0 0 0 0 0 -0 0 0 0 -0 -0 -0 -0 0 0 0 0 0
-0 -0 -0 -0 -0 -0 -0 -0 -0 0 -0 0 -0 -0 0 0 0 0 0 0 0 0 0 0 0 0 0 0 -0 -0 0 -0 0 0 -0 -0 -0 -0 -0 0 -0 -0 -0
-0 -0 -0 -0 -0 -0 -0 -0 -0 -0 0 0 0 0 -0 0 0 0 0 0 0 0 0 0 -0 0 0 0 0 0 0 0 -0 -0 -0 -0 -0 -0 0 -0 -0 -0 -0
-0 -0 -0 -0 -0 -0 -0 -0 -0 -0 -0 0 0 0 0 -0 0 0 0 0 0 0 0 0 0 0 0 0 0 0 0 0 0 0 -0 0 0 0 0 0 -0 0 -0
-0 -0 -0 -0 -0 -0 -0 -0 -0 -0 -0 -0 -0 0 0 -0 0 0 0 0 0 0 0 0 0 0 0 0 0 0 0 0 0 0 0 0 -0 -0 0 0 0 0 0
-0 -0 -0 -0 -0 -0 -0 -0 -0 -0 -0 -0 -0 -0 -0 0 0 0 0 0 0 0 0 0 0 0 0 0 0 0 0 0 0 0 0 0 0 0 0 -0 -0 -0 -0
-0 -0 -0 -0 -0 -0 -0 -0 -0 -0 -0 -0 0 0 0 0 0 0 0 0 0 0 0 0 0 0 0 0 0 0 0 0 0 0 0 0 0 0 0 0 0 -0 0
-0 -0 -0 -0 -0 -0 -0 -0 -0 0 0 0 0 0 0 0 0 0 0 0 0 0 0 0 0 0 0 0 0 0 0 0 0 0 0 0 0 0 0 0 0 0 0
-0 -0 0 0 0 0 0 0 0 0 0 0 0 0 0 0 0 0 0 0 0 0 0 0 0 0 0 0 0 0 0 0 0 0 0 0 0 0 0 0 0 0 0
0 -0 -0 -0 0 -0 0 0 0 0 0 0 0 0 0 0 0 0 0 0 0 0 0 0 0 0 0 0 0 0 0 0 0 0 0 0 0 0 0 0 0 0 0
-0 -0 0 0 0 0 0 0 0 0 0 0 0 0 0 0 0 0 0 0 0 0 0 0 0 0 0 0 0 0 0 0 0 0 0 0 0 0 0 0 0 0 0
-0 0 0 0 0 0 0 0 0 0 0 0 0 0 0 0 0 0 0 0 0 0 0 0 1 0 1 0 0 0 1 1 0 0 0 0 0 0 0 0 0 0 0
-0 0 0 0 0 0 0 0 1 1 0 0 0 0 0 0 0 0 0 0 0 0 0 0 1 0 1 0 0 0 1 1 1 0 1 1 0 0 0 0 0 0 0
0 0 0 1 1 1 1 1 1 1 1 1 1 1 1 1 0 0 0 0 1 1 1 1 0 1 1 0 0 0 1 1 1 1 1 1 1 0 0 0 0 0 0
0 1 1 1 1 1 2 2 2 2 2 1 0 0 0 1 1 0 0 0 1 0 0 0 0 0 0 0 0 0 1 1 1 1 1 1 1 0 0 0 0 0 0
0 1 1 1 2 1 2 1 1 1 1 0 0 0 0 0 0 0 0 0 0 0 0 0 0 0 0 0 0 0 1 1 2 2 1 0 1 0 0 0 0 0 0
1 1 2 2 1 1 1 1 1 0 0 0 0 0 0 0 0 0 0 0 0 0 0 0 0 0 0 0 0 0 0 1 1 1 1 1 0 0 0 0 0 0 0
0 1 1 1 1 1 1 1 0 0 0 0 0 0 0 0 0 0 0 0 0 0 0 0 0 0 0 0 0 0 0 0 1 1 1 0 0 0 0 0 0 0 0
0 1 1 0 0 0 0 0 0 0 0 0 0 0 0 0 0 0 0 0 0 0 0 0 0 0 0 0 0 0 0 0 0 0 0 0 0 0 0 0 0 0 0
1 1 1 0 0 0 0 0 0 0 0 0 0 0 0 0 0 0 0 0 0 0 0 0 0 0 0 0 0 0 0 0 0 0 0 0 0 0 0 0 0 0 0
1 1 0 0 0 0 0 0 0 0 0 0 0 0 0 0 0 0 0 0 0 0 0 0 0 0 0 0 0 0 0 0 0 0 0 0 0 0 0 0 0 0 0
0 1 0 0 0 0 0 0 0 0 0 0 0 0 0 -0 -0 -0 -0 0 0 0 0 0 0 0 0 0 0 0 0 0 0 0 0 0 0 0 0 0 0 0 0
Wind_Speed_500mb
27 30 32 33 30 31 36 39 40 35 38 40 39 36 32 27 27 27 20 12 11 18 17 13 12 13 13 14 14 12 13 11 9 1 4 7 7 10 14 12 11 12 20
34 35 36 35 35 33 39 42 43 42 39 40 40 32 30 30 27 27 23 16 15 10 11 13 13 15 15 14 13 13 11 8 12 3 5 3 3 9 11 12 13 13 10
41 40 42 38 38 39 41 45 47 45 42 39 39 33 30 31 27 31 20 14 18 13 14 14 12 9 11 15 14 12 12 11 10 3 2 1 2 6 5 6 7 17 12
39 37 39 41 42 35 35 42 46 49 45 41 39 40 35 28 26 21 17 16 18 15 12 15 13 10 12 10 10 10 7 5 2 4 5 3 4 4 5 7 10 14 13
39 43 45 41 39 36 31 36 44 49 48 44 41 41 36 27 25 20 21 17 19 20 16 13 15 13 12 13 10 9 8 6 5 5 6 2 5 8 5 8 12 13 15
41 40 37 42 42 36 32 35 42 49 50 46 41 44 40 30 29 24 17 19 20 22 22 16 14 13 12 12 13 10 11 9 9 6 4 2 4 5 4 5 14 14 15
41 43 38 45 48 42 37 34 39 45 50 51 47 45 42 34 31 29 24 23 20 18 21 25 19 13 11 10 11 11 11 11 12 10 7 3 3 3 9 8 9 15 17
45 44 38 40 47 46 40 35 36 40 47 52 50 47 44 40 36 33 30 23 23 19 18 17 15 15 13 11 10 18 19 17 15 13 13 12 11 9 8 9 11 10 10
49 45 40 39 42 45 40 38 33 33 42 47 48 48 46 46 43 38 34 32 30 25 18 18 19 18 18 17 15 15 19 19 14 15 12 12 16 17 17 14 15 13 10
34 42 40 37 35 39 38 38 38 33 31 40 45 47 47 46 45 42 40 38 32 28 26 24 22 21 22 23 26 22 22 21 16 13 15 15 18 16 19 16 14 12 13
36 36 36 34 34 37 38 35 38 39 38 38 37 38 40 41 43 46 44 42 37 34 31 29 29 30 33 33 31 30 29 26 25 22 21 21 18 18 20 20 19 16 16
24 25 26 28 29 29 34 36 36 41 38 37 38 40 39 39 41 43 43 43 45 42 41 38 36 34 34 35 38 34 34 29 29 26 25 23 28 24 23 21 20 20 18
22 21 24 27 27 25 24 27 29 30 39 43 42 43 42 44 41 42 42 42 42 42 46 45 44 41 36 33 31 32 35 35 29 29 26 22 25 30 28 24 22 23 23
22 21 22 24 23 24 22 22 23 24 28 35 40 44 46 48 43 38 36 43 43 43 45 44 44 41 39 38 39 35 35 35 35 32 29 24 26 26 31 27 25 26 25
29 28 25 23 25 26 24 22 22 20 21 24 27 29 32 35 43 50 52 47 40 44 43 44 43 45 45 43 41 37 35 38 35 35 32 32 30 33 32 31 29 29 26
27 30 28 25 28 30 29 26 26 25 24 23 23 25 27 28 30 38 48 57 55 51 45 48 53 50 51 50 46 44 42 41 42 40 37 37 35 36 36 34 32 32 30
34 33 32 27 30 31 29 21 19 22 22 22 27 30 31 29 31 33 39 50 58 61 62 57 55 59 55 52 53 53 50 47 50 50 44 43 43 41 40 39 36 34 33
41 34 32 30 29 27 25 24 23 23 25 25 31 31 32 37 41 42 43 43 50 54 57 55 49 57 57 56 54 57 61 58 53 51 47 47 44 42 39 34 33 33 33
35 33 32 29 27 25 25 23 22 21 23 22 25 30 34 36 42 44 42 42 45 47 51 52 55 60 62 64 58 53 59 65 62 53 50 48 46 45 41 37 35 34 32
25 29 32 33 32 28 24 24 20 16 18 24 32 38 42 42 41 43 46 46 48 49 52 53 54 55 57 72 64 67 65 67 64 56 52 50 51 50 48 45 40 36 33
21 28 31 31 28 26 22 16 12 14 18 24 29 32 38 43 45 47 49 50 52 57 60 60 60 62 62 65 59 69 66 70 68 59 55 53 51 49 49 50 43 38 33
24 24 25 25 22 17 13 10 10 12 14 15 17 22 29 36 42 39 40 43 41 44 51 53 55 59 60 58 55 57 65 59 66 62 54 52 51 48 48 52 46 40 34
27 29 25 22 18 12 8 8 7 4 1 6 11 14 17 17 16 24 34 34 34 34 36 41 44 48 46 45 48 56 63 60 61 59 57 52 48 50 50 48 42 37 43
28 26 23 18 15 15 14 11 9 8 6 9 14 15 11 11 14 21 28 31 31 27 26 31 37 38 39 42 40 54 61 57 57 54 56 48 45 46 53 53 42 46 45
23 19 15 15 16 16 14 12 11 9 10 14 19 26 30 25 17 13 16 23 27 28 27 28 28 31 34 34 36 34 39 59 62 70 73 61 53 46 54 49 41 47 42
22 21 19 17 17 18 16 13 14 11 10 9 15 22 29 33 37 36 26 12 11 16 23 27 30 30 33 33 31 29 35 46 51 65 72 62 60 58 63 49 48 38 46
Wind_Direction_500mb
232 214 218 228 223 218 209 206 207 200 195 193 194 195 199 205 206 205 207 212 214 214 223 231 246 265 287 311 311 306 316 344 342 242 219 216 222 234 236 246 245 236 221
223 222 217 219 223 224 212 207 204 203 201 198 199 203 199 207 205 204 206 226 216 214 235 253 272 276 281 293 300 301 318 330 337 282 154 140 271 257 244 234 235 204 212
225 211 212 211 220 220 211 206 206 202 203 203 208 212 207 205 204 206 218 226 215 234 264 273 267 265 291 288 284 282 296 304 342 301 220 37 94 156 202 204 198 197 196
218 208 205 211 215 213 213 208 210 209 208 212 217 218 216 213 213 208 210 222 219 241 263 268 247 261 311 261 281 263 267 271 246 312 302 315 176 177 176 214 208 196 204
207 210 211 215 216 210 211 209 209 209 209 213 218 215 215 213 204 204 211 217 223 246 255 269 252 264 289 268 267 237 232 260 261 314 343 315 179 194 178 190 201 202 200
202 211 218 213 217 211 205 208 210 207 209 212 214 211 216 217 216 214 222 231 242 254 247 257 267 271 281 276 239 250 232 242 240 262 285 274 203 235 210 217 209 211 209
203 212 217 213 215 214 209 205 208 209 209 212 214 218 223 225 223 222 232 243 250 251 257 261 264 272 271 275 244 233 243 248 243 235 250 244 245 282 234 234 246 227 229
200 210 213 212 213 214 213 209 209 208 212 214 216 220 224 229 231 232 237 251 251 261 268 239 260 255 254 272 255 247 246 252 255 257 244 245 258 275 232 241 242 259 248
206 211 214 216 214 216 217 216 212 213 214 219 220 222 225 230 234 237 243 250 249 252 246 244 255 259 255 251 270 271 225 254 248 247 242 249 263 255 250 254 248 249 275
201 208 212 213 216 218 221 225 223 220 223 222 224 228 232 235 238 244 244 246 248 243 245 251 261 263 261 257 252 263 243 238 241 249 253 259 263 258 231 239 247 245 259
202 207 213 215 219 224 225 224 227 229 229 229 229 233 237 239 243 244 244 245 248 250 251 255 256 261 264 266 259 256 246 248 250 251 264 252 246 237 238 237 245 255 256
193 197 209 217 219 221 226 230 229 226 232 236 236 239 240 242 243 246 248 249 250 252 255 255 258 260 262 266 272 250 248 247 251 251 252 256 245 243 241 246 248 250 248
185 187 199 212 219 225 232 233 233 235 234 238 242 244 245 247 249 248 248 250 253 255 255 257 255 255 256 257 254 254 256 252 252 247 256 263 247 243 236 232 245 257 245
206 211 217 221 217 217 222 230 242 247 247 245 247 249 253 254 255 254 253 256 252 252 255 258 256 256 248 247 249 257 254 247 248 252 258 264 253 249 239 246 246 252 253
220 221 221 223 220 219 221 232 238 241 249 253 258 258 259 259 257 250 248 253 253 250 249 253 254 248 246 247 245 248 249 248 248 251 257 258 258 250 247 252 251 249 252
223 224 218 228 225 225 229 231 244 249 253 250 252 259 255 263 265 252 247 248 249 251 256 256 248 245 243 241 243 244 245 245 244 250 257 251 254 249 246 248 251 254 257
235 235 227 236 229 224 229 229 240 253 251 239 258 248 260 262 270 268 253 246 247 247 249 246 251 250 244 243 242 240 242 243 248 253 252 250 250 246 248 250 256 257 259
237 240 226 229 225 218 220 226 238 240 244 251 259 260 265 269 272 272 267 261 252 249 250 246 249 250 244 249 242 242 241 244 245 247 245 247 245 243 248 249 251 261 259
234 229 223 222 219 217 221 228 225 218 233 254 264 270 272 271 269 269 264 262 261 254 249 250 255 261 249 246 242 246 243 243 244 244 244 245 242 240 239 247 255 262 256
223 216 218 220 222 219 211 209 215 227 249 263 273 279 277 272 265 261 261 258 257 256 257 255 257 256 254 252 261 241 248 244 242 241 243 243 243 242 239 245 253 255 246
194 201 200 204 201 201 204 212 234 261 277 284 284 281 280 276 268 259 258 259 260 258 253 254 255 254 255 259 259 250 241 238 242 240 241 242 240 241 240 239 245 244 241
170 177 180 178 180 186 195 235 260 275 278 283 286 282 282 281 270 259 256 266 267 261 259 255 257 258 257 258 258 234 238 242 242 241 240 244 246 244 237 234 237 236 228
154 158 164 167 171 183 195 215 215 202 186 329 315 300 301 310 306 272 259 260 260 259 256 256 257 258 260 265 252 242 247 243 244 243 244 242 244 240 232 229 228 228 226
157 162 165 172 181 183 183 181 160 135 90 54 25 20 352 308 294 266 255 256 257 260 258 253 258 257 260 258 255 243 249 243 238 246 250 240 246 240 230 218 220 222 225
170 176 184 193 195 183 180 173 168 152 101 63 57 52 51 43 23 333 289 263 260 257 257 259 259 253 258 260 259 255 247 238 244 251 245 243 235 232 232 203 213 219 213
197 198 199 203 204 196 194 191 177 174 129 69 65 67 64 61 53 43 32 360 299 252 256 254 259 261 260 256 253 254 246 239 241 241 235 229 221 237 223 209 200 176 166
Wind_Speed_850mb
27 30 32 33 30 31 36 39 40 35 38 40 39 36 32 27 27 27 20 12 11 18 17 13 12 13 13 14 14 12 13 11 9 1 4 7 7 10 14 12 11 12 20
34 35 36 35 35 33 39 42 43 42 39 40 40 32 30 30 27 27 23 16 15 10 11 13 13 15 15 14 13 13 11 8 12 3 5 3 3 9 11 12 13 13 10
41 40 42 38 38 39 41 45 47 45 42 39 39 33 30 31 27 31 20 14 18 13 14 14 12 9 11 15 14 12 12 11 10 3 2 1 2 6 5 6 7 17 12
39 37 39 41 42 35 35 42 46 49 45 41 39 40 35 28 26 21 17 16 18 15 12 15 13 10 12 10 10 10 7 5 2 4 5 3 4 4 5 7 10 14 13
39 43 45 41 39 36 31 36 44 49 48 44 41 41 36 27 25 20 21 17 19 20 16 13 15 13 12 13 10 9 8 6 5 5 6 2 5 8 5 8 12 13 15
41 40 37 42 42 36 32 35 42 49 50 46 41 44 40 30 29 24 17 19 20 22 22 16 14 13 12 12 13 10 11 9 9 6 4 2 4 5 4 5 14 14 15
41 43 38 45 48 42 37 34 39 45 50 51 47 45 42 34 31 29 24 23 20 18 21 25 19 13 11 10 11 11 11 11 12 10 7 3 3 3 9 8 9 15 17
45 44 38 40 47 46 40 35 36 40 47 52 50 47 44 40 36 33 30 23 23 19 18 17 15 15 13 11 10 18 19 17 15 13 13 12 11 9 8 9 11 10 10
49 45 40 39 42 45 40 38 33 33 42 47 48 48 46 46 43 38 34 32 30 25 18 18 19 18 18 17 15 15 19 19 14 15 12 12 16 17 17 14 15 13 10
34 42 40 37 35 39 38 38 38 33 31 40 45 47 47 46 45 42 40 38 32 28 26 24 22 21 22 23 26 22 22 21 16 13 15 15 18 16 19 16 14 12 13
36 36 36 34 34 37 38 35 38 39 38 38 37 38 40 41 43 46 44 42 37 34 31 29 29 30 33 33 31 30 29 26 25 22 21 21 18 18 20 20 19 16 16
24 25 26 28 29 29 34 36 36 41 38 37 38 40 39 39 41 43 43 43 45 42 41 38 36 34 34 35 38 34 34 29 29 26 25 23 28 24 23 21 20 20 18
22 21 24 27 27 25 24 27 29 30 39 43 42 43 42 44 41 42 42 42 42 42 46 45 44 41 36 33 31 32 35 35 29 29 26 22 25 30 28 24 22 23 23
22 21 22 24 23 24 22 22 23 24 28 35 40 44 46 48 43 38 36 43 43 43 45 44 44 41 39 38 39 35 35 35 35 32 29 24 26 26 31 27 25 26 25
29 28 25 23 25 26 24 22 22 20 21 24 27 29 32 35 43 50 52 47 40 44 43 44 43 45 45 43 41 37 35 38 35 35 32 32 30 33 32 31 29 29 26
27 30 28 25 28 30 29 26 26 25 24 23 23 25 27 28 30 38 48 57 55 51 45 48 53 50 51 50 46 44 42 41 42 40 37 37 35 36 36 34 32 32 30
34 33 32 27 30 31 29 21 19 22 22 22 27 30 31 29 31 33 39 50 58 61 62 57 55 59 55 52 53 53 50 47 50 50 44 43 43 41 40 39 36 34 33
41 34 32 30 29 27 25 24 23 23 25 25 31 31 32 37 41 42 43 43 50 54 57 55 49 57 57 56 54 57 61 58 53 51 47 47 44 42 39 34 33 33 33
35 33 32 29 27 25 25 23 22 21 23 22 25 30 34 36 42 44 42 42 45 47 51 52 55 60 62 64 58 53 59 65 62 53 50 48 46 45 41 37 35 34 32
25 29 32 33 32 28 24 24 20 16 18 24 32 38 42 42 41 43 46 46 48 49 52 53 54 55 57 72 64 67 65 67 64 56 52 50 51 50 48 45 40 36 33
21 28 31 31 28 26 22 16 12 14 18 24 29 32 38 43 45 47 49 50 52 57 60 60 60 62 62 65 59 69 66 70 68 59 55 53 51 49 49 50 43 38 33
24 24 25 25 22 17 13 10 10 12 14 15 17 22 29 36 42 39 40 43 41 44 51 53 55 59 60 58 55 57 65 59 66 62 54 52 51 48 48 52 46 40 34
27 29 25 22 18 12 8 8 7 4 1 6 11 14 17 17 16 24 34 34 34 34 36 41 44 48 46 45 48 56 63 60 61 59 57 52 48 50 50 48 42 37 43
28 26 23 18 15 15 14 11 9 8 6 9 14 15 11 11 14 21 28 31 31 27 26 31 37 38 39 42 40 54 61 57 57 54 56 48 45 46 53 53 42 46 45
23 19 15 15 16 16 14 12 11 9 10 14 19 26 30 25 17 13 16 23 27 28 27 28 28 31 34 34 36 34 39 59 62 70 73 61 53 46 54 49 41 47 42
22 21 19 17 17 18 16 13 14 11 10 9 15 22 29 33 37 36 26 12 11 16 23 27 30 30 33 33 31 29 35 46 51 65 72 62 60 58 63 49 48 38 46
Wind_Direction_850mb
232 214 218 228 223 218 209 206 207 200 195 193 194 195 199 205 206 205 207 212 214 214 223 231 246 265 287 311 311 306 316 344 342 242 219 216 222 234 236 246 245 236 221
223 222 217 219 223 224 212 207 204 203 201 198 199 203 199 207 205 204 206 226 216 214 235 253 272 276 281 293 300 301 318 330 337 282 154 140 271 257 244 234 235 204 212
225 211 212 211 220 220 211 206 206 202 203 203 208 212 207 205 204 206 218 226 215 234 264 273 267 265 291 288 284 282 296 304 342 301 220 37 94 156 202 204 198 197 196
218 208 205 211 215 213 213 208 210 209 208 212 217 218 216 213 213 208 210 222 219 241 263 268 247 261 311 261 281 263 267 271 246 312 302 315 176 177 176 214 208 196 204
207 210 211 215 216 210 211 209 209 209 209 213 218 215 215 213 204 204 211 217 223 246 255 269 252 264 289 268 267 237 232 260 261 314 343 315 179 194 178 190 201 202 200
202 211 218 213 217 211 205 208 210 207 209 212 214 211 216 217 216 214 222 231 242 254 247 257 267 271 281 276 239 250 232 242 240 262 285 274 203 235 210 217 209 211 209
203 212 217 213 215 214 209 205 208 209 209 212 214 218 223 225 223 222 232 243 250 251 257 261 264 272 271 275 244 233 243 248 243 235 250 244 245 282 234 234 246 227 229
200 210 213 212 213 214 213 209 209 208 212 214 216 220 224 229 231 232 237 251 251 261 268 239 260 255 254 272 255 247 246 252 255 257 244 245 258 275 232 241 242 259 248
206 211 214 216 214 216 217 216 212 213 214 219 220 222 225 230 234 237 243 250 249 252 246 244 255 259 255 251 270 271 225 254 248 247 242 249 263 255 250 254 248 249 275
201 208 212 213 216 218 221 225 223 220 223 222 224 228 232 235 238 244 244 246 248 243 245 251 261 263 261 257 252 263 243 238 241 249 253 259 263 258 231 239 247 245 259
202 207 213 215 219 224 225 224 227 229 229 229 229 233 237 239 243 244 244 245 248 250 251 255 256 261 264 266 259 256 246 248 250 251 264 252 246 237 238 237 245 255 256
193 197 209 217 219 221 226 230 229 226 232 236 236 239 240 242 243 246 248 249 250 252 255 255 258 260 262 266 272 250 248 247 251 251 252 256 245 243 241 246 248 250 248
185 187 199 212 219 225 232 233 233 235 234 238 242 244 245 247 249 248 248 250 253 255 255 257 255 255 256 257 254 254 256 252 252 247 256 263 247 243 236 232 245 257 245
206 211 217 221 217 217 222 230 242 247 247 245 247 249 253 254 255 254 253 256 252 252 255 258 256 256 248 247 249 257 254 247 248 252 258 264 253 249 239 246 246 252 253
220 221 221 223 220 219 221 232 238 241 249 253 258 258 259 259 257 250 248 253 253 250 249 253 254 248 246 247 245 248 249 248 248 251 257 258 258 250 247 252 251 249 252
223 224 218 228 225 225 229 231 244 249 253 250 252 259 255 263 265 252 247 248 249 251 256 256 248 245 243 241 243 244 245 245 244 250 257 251 254 249 246 248 251 254 257
235 235 227 236 229 224 229 229 240 253 251 239 258 248 260 262 270 268 253 246 247 247 249 246 251 250 244 243 242 240 242 243 248 253 252 250 250 246 248 250 256 257 259
237 240 226 229 225 218 220 226 238 240 244 251 259 260 265 269 272 272 267 261 252 249 250 246 249 250 244 249 242 242 241 244 245 247 245 247 245 243 248 249 251 261 259
234 229 223 222 219 217 221 228 225 218 233 254 264 270 272 271 269 269 264 262 261 254 249 250 255 261 249 246 242 246 243 243 244 244 244 245 242 240 239 247 255 262 256
223 216 218 220 222 219 211 209 215 227 249 263 273 279 277 272 265 261 261 258 257 256 257 255 257 256 254 252 261 241 248 244 242 241 243 243 243 242 239 245 253 255 246
194 201 200 204 201 201 204 212 234 261 277 284 284 281 280 276 268 259 258 259 260 258 253 254 255 254 255 259 259 250 241 238 242 240 241 242 240 241 240 239 245 244 241
170 177 180 178 180 186 195 235 260 275 278 283 286 282 282 281 270 259 256 266 267 261 259 255 257 258 257 258 258 234 238 242 242 241 240 244 246 244 237 234 237 236 228
154 158 164 167 171 183 195 215 215 202 186 329 315 300 301 310 306 272 259 260 260 259 256 256 257 258 260 265 252 242 247 243 244 243 244 242 244 240 232 229 228 228 226
157 162 165 172 181 183 183 181 160 135 90 54 25 20 352 308 294 266 255 256 257 260 258 253 258 257 260 258 255 243 249 243 238 246 250 240 246 240 230 218 220 222 225
170 176 184 193 195 183 180 173 168 152 101 63 57 52 51 43 23 333 289 263 260 257 257 259 259 253 258 260 259 255 247 238 244 251 245 243 235 232 232 203 213 219 213
197 198 199 203 204 196 194 191 177 174 129 69 65 67 64 61 53 43 32 360 299 252 256 254 259 261 260 256 253 254 246 239 241 241 235 229 221 237 223 209 200 176 166